Meteo pe oră la Bolshoe Ermakovo

Astăzi, 12 Mai, Miercuri

Timp Temperatura Precipitaţii Vânt Presiune Umiditate
00:00 +19°C° 0 mm 1 m/s 759 mmHg 57%
01:00 +19°C° 0 mm 1 m/s 759 mmHg 58%
02:00 +18°C° 0 mm 1 m/s 759 mmHg 59%
03:00 +18°C° 0 mm 1 m/s 759 mmHg 59%
04:00 +19°C° 0 mm 1 m/s 759 mmHg 59%
05:00 +19°C° 0 mm 1 m/s 759 mmHg 59%
06:00 +20°C° 0 mm 1 m/s 760 mmHg 58%
07:00 +21°C° 0 mm 1 m/s 760 mmHg 53%
08:00 +23°C° 0 mm 2 m/s 760 mmHg 47%
09:00 +25°C° 0 mm 2 m/s 760 mmHg 41%
10:00 +25°C° 0 mm 3 m/s 759 mmHg 39%
11:00 +26°C° 0 mm 4 m/s 759 mmHg 37%
12:00 +27°C° 0 mm 4 m/s 759 mmHg 35%
13:00 +27°C° 0 mm 5 m/s 759 mmHg 35%
14:00 +27°C° 0 mm 5 m/s 759 mmHg 35%
15:00 +26°C° 0 mm 5 m/s 759 mmHg 35%
16:00 +25°C° 0 mm 4 m/s 759 mmHg 40%
17:00 +23°C° 0 mm 4 m/s 759 mmHg 44%
18:00 +22°C° 0 mm 3 m/s 759 mmHg 49%
19:00 +21°C° 0 mm 3 m/s 759 mmHg 50%
20:00 +20°C° 0 mm 3 m/s 759 mmHg 51%
21:00 +18°C° 0 mm 3 m/s 759 mmHg 52%
22:00 +18°C° 0 mm 3 m/s 759 mmHg 53%
23:00 +17°C° 0 mm 2 m/s 759 mmHg 53%

Mâine, 13 Mai, Joi

Timp Temperatura Precipitaţii Vânt Presiune Umiditate
00:00 +17°C° 0 mm 2 m/s 759 mmHg 54%
01:00 +17°C° 0 mm 2 m/s 759 mmHg 54%
02:00 +16°C° 0 mm 2 m/s 759 mmHg 55%
03:00 +16°C° 0 mm 3 m/s 759 mmHg 55%
04:00 +16°C° 0 mm 3 m/s 759 mmHg 56%
05:00 +17°C° 0 mm 3 m/s 759 mmHg 58%
06:00 +17°C° 0 mm 3 m/s 759 mmHg 59%
07:00 +19°C° 0 mm 4 m/s 759 mmHg 54%
08:00 +21°C° 0 mm 5 m/s 759 mmHg 49%
09:00 +22°C° 0 mm 5 m/s 759 mmHg 44%
10:00 +23°C° 0 mm 5 m/s 759 mmHg 42%
11:00 +25°C° 0 mm 5 m/s 759 mmHg 41%
12:00 +26°C° 0 mm 5 m/s 758 mmHg 40%
13:00 +26°C° 0 mm 5 m/s 758 mmHg 41%
14:00 +25°C° 0 mm 5 m/s 758 mmHg 43%
15:00 +25°C° 0 mm 4 m/s 758 mmHg 45%
16:00 +25°C° 0 mm 4 m/s 758 mmHg 46%
17:00 +25°C° 0 mm 5 m/s 757 mmHg 48%
18:00 +23°C° 0 mm 5 m/s 757 mmHg 49%
19:00 +22°C° 0 mm 4 m/s 757 mmHg 51%
20:00 +21°C° 0 mm 4 m/s 757 mmHg 53%
21:00 +20°C° 0 mm 4 m/s 757 mmHg 55%
22:00 +20°C° 0 mm 4 m/s 757 mmHg 54%
23:00 +19°C° 0 mm 4 m/s 757 mmHg 54%

Poimâine, 14 Mai, Vineri

Timp Temperatura Precipitaţii Vânt Presiune Umiditate
00:00 +19°C° 0 mm 4 m/s 757 mmHg 53%
01:00 +18°C° 0 mm 4 m/s 757 mmHg 55%
02:00 +18°C° 0 mm 4 m/s 757 mmHg 58%
03:00 +17°C° 0 mm 3 m/s 757 mmHg 60%
04:00 +17°C° 0.1 mm 3 m/s 757 mmHg 61%
05:00 +18°C° 0.1 mm 3 m/s 757 mmHg 62%
06:00 +19°C° 0.1 mm 3 m/s 757 mmHg 63%
07:00 +20°C° 0 mm 4 m/s 758 mmHg 55%
08:00 +22°C° 0 mm 5 m/s 758 mmHg 48%
09:00 +25°C° 0 mm 5 m/s 758 mmHg 41%
10:00 +26°C° 0 mm 5 m/s 757 mmHg 38%
11:00 +28°C° 0 mm 6 m/s 757 mmHg 34%
12:00 +29°C° 0 mm 6 m/s 757 mmHg 31%
13:00 +29°C° 0 mm 5 m/s 757 mmHg 31%
14:00 +29°C° 0 mm 5 m/s 757 mmHg 31%
15:00 +30°C° 0 mm 5 m/s 757 mmHg 30%
16:00 +28°C° 0 mm 5 m/s 757 mmHg 35%
17:00 +27°C° 0 mm 4 m/s 756 mmHg 40%
18:00 +25°C° 0 mm 4 m/s 756 mmHg 45%
19:00 +24°C° 0 mm 3 m/s 756 mmHg 48%
20:00 +21°C° 0 mm 3 m/s 756 mmHg 50%
21:00 +20°C° 0 mm 3 m/s 756 mmHg 53%
22:00 +19°C° 0 mm 3 m/s 756 mmHg 53%
23:00 +18°C° 0 mm 3 m/s 756 mmHg 53%

15 Mai, Sâmbătă

Timp Temperatura Precipitaţii Vânt Presiune Umiditate
00:00 +18°C° 0 mm 3 m/s 756 mmHg 53%
01:00 +17°C° 0 mm 3 m/s 756 mmHg 53%
02:00 +17°C° 0 mm 3 m/s 756 mmHg 53%
03:00 +16°C° 0 mm 3 m/s 756 mmHg 53%
04:00 +17°C° 0 mm 3 m/s 756 mmHg 53%
05:00 +18°C° 0 mm 3 m/s 756 mmHg 53%
06:00 +19°C° 0 mm 3 m/s 756 mmHg 53%
07:00 +21°C° 0 mm 4 m/s 756 mmHg 48%
08:00 +23°C° 0 mm 4 m/s 756 mmHg 43%
09:00 +26°C° 0 mm 5 m/s 756 mmHg 37%
10:00 +27°C° 0 mm 5 m/s 756 mmHg 34%
11:00 +29°C° 0 mm 5 m/s 756 mmHg 30%
12:00 +30°C° 0 mm 5 m/s 756 mmHg 27%
13:00 +30°C° 0 mm 5 m/s 756 mmHg 26%
14:00 +30°C° 0 mm 5 m/s 756 mmHg 26%
15:00 +32°C° 0 mm 5 m/s 755 mmHg 25%
16:00 +29°C° 0 mm 4 m/s 755 mmHg 31%
17:00 +28°C° 0 mm 3 m/s 755 mmHg 38%
18:00 +27°C° 0 mm 2 m/s 755 mmHg 44%
19:00 +25°C° 0 mm 2 m/s 755 mmHg 45%
20:00 +24°C° 0 mm 2 m/s 755 mmHg 47%
21:00 +21°C° 0 mm 2 m/s 755 mmHg 48%
22:00 +20°C° 0 mm 2 m/s 755 mmHg 48%
23:00 +20°C° 0 mm 2 m/s 755 mmHg 48%

16 Mai, Duminică

Timp Temperatura Precipitaţii Vânt Presiune Umiditate
00:00 +20°C° 0 mm 2 m/s 754 mmHg 48%
01:00 +19°C° 0 mm 2 m/s 755 mmHg 50%
02:00 +19°C° 0 mm 2 m/s 755 mmHg 52%
03:00 +18°C° 0 mm 2 m/s 755 mmHg 55%
04:00 +19°C° 0 mm 2 m/s 755 mmHg 56%
05:00 +20°C° 0 mm 2 m/s 755 mmHg 58%
06:00 +21°C° 0 mm 2 m/s 755 mmHg 59%
07:00 +24°C° 0 mm 3 m/s 755 mmHg 53%
08:00 +26°C° 0 mm 4 m/s 755 mmHg 47%
09:00 +28°C° 0 mm 5 m/s 755 mmHg 40%
10:00 +29°C° 0 mm 5 m/s 755 mmHg 37%
11:00 +30°C° 0 mm 6 m/s 754 mmHg 34%
12:00 +32°C° 0 mm 6 m/s 754 mmHg 31%
13:00 +32°C° 0 mm 6 m/s 754 mmHg 31%
14:00 +32°C° 0 mm 5 m/s 754 mmHg 30%
15:00 +33°C° 0 mm 5 m/s 753 mmHg 29%
16:00 +30°C° 0 mm 4 m/s 753 mmHg 35%
17:00 +29°C° 0 mm 3 m/s 753 mmHg 42%
18:00 +27°C° 0 mm 2 m/s 753 mmHg 48%
19:00 +26°C° 0 mm 2 m/s 753 mmHg 49%
20:00 +25°C° 0 mm 1 m/s 753 mmHg 51%
21:00 +23°C° 0 mm 1 m/s 753 mmHg 52%
22:00 +23°C° 0 mm 1 m/s 753 mmHg 53%
23:00 +22°C° 0 mm 1 m/s 753 mmHg 54%

17 Mai, Luni

Timp Temperatura Precipitaţii Vânt Presiune Umiditate
00:00 +21°C° 0 mm 2 m/s 753 mmHg 55%
01:00 +21°C° 0 mm 2 m/s 753 mmHg 54%
02:00 +22°C° 0 mm 1 m/s 754 mmHg 54%
03:00 +21°C° 0 mm 1 m/s 754 mmHg 54%
04:00 +22°C° 0 mm 1 m/s 754 mmHg 54%
05:00 +23°C° 0 mm 1 m/s 754 mmHg 55%
06:00 +23°C° 0 mm 1 m/s 754 mmHg 56%
07:00 +25°C° 0 mm 1 m/s 754 mmHg 51%
08:00 +27°C° 0 mm 2 m/s 754 mmHg 46%
09:00 +29°C° 0 mm 2 m/s 754 mmHg 41%
10:00 +30°C° 0 mm 2 m/s 754 mmHg 38%
11:00 +31°C° 0 mm 2 m/s 754 mmHg 35%
12:00 +32°C° 0 mm 2 m/s 754 mmHg 31%
13:00 +31°C° 0 mm 3 m/s 754 mmHg 32%
14:00 +31°C° 0 mm 3 m/s 753 mmHg 32%
15:00 +31°C° 0 mm 3 m/s 753 mmHg 33%
16:00 +30°C° 0 mm 2 m/s 753 mmHg 37%
17:00 +29°C° 0 mm 2 m/s 753 mmHg 42%
18:00 +28°C° 0 mm 1 m/s 753 mmHg 46%
19:00 +27°C° 0 mm 1 m/s 753 mmHg 49%
20:00 +25°C° 0 mm 1 m/s 753 mmHg 52%
21:00 +23°C° 0 mm 1 m/s 753 mmHg 56%
22:00 +23°C° 0 mm 1 m/s 753 mmHg 57%
23:00 +22°C° 0 mm 1 m/s 753 mmHg 58%
Arată mai mult

Formular de consimțământ

Meteoprog și furnizorii noștri de servicii pot stoca și accesa date personale, precum cookies, identificatori de dispozitiv sau alte tehnologii similare pe dispozitivul dumneavoastră și procesa astfel de date pentru a personaliza conținutul și reclamele, dar și pentru a oferi caracteristici de social media și pentru a analiza traficul.

  • Stocarea și/sau accesarea informațiilor pe dispozitivul dumneavoastră

    Cookies, identificatori de dispozitiv sau alte informații pot fi stocate sau accesate pe dispozitiv în scopurile indicate mai sus.

  • Reclame și conținut personalizat, evaluarea reclamelor și a conținutului, informații despre audiențe și dezvoltarea produselor

    Reclamele și conținutul pot fi personalizate pe baza unui profil. Pot fi adăugate date suplimentare pentru a personaliza mai bine reclamele și conținutul. Performanța reclamelor și conținutului poate fi măsurată. Pot fi obținute informații despre utilizatorii care au văzut reclamele și conținutul. Aceste date pot fi utilizate pentru a dezvolta sau îmbunătăți experiența utilizatorilor, sistemele și software-ul.

Dând clic pe ‘Sunt de acord’, permiteți utilizarea cookie-urilor menționate, a identificatorilor de dispozitiv, balizelor web sau altor tehnologii similare. Setările pot fi modificate din browser-ul dispozitivului dumneavoastră.

În anumite scopuri, interesele legitime pot prima asupra consimțământului. Puteți citi mai multe informații în acest sens în Politica privind Confidențialitatea Datelor și Cookie.